Location: Unspecified
(0.0000°N, 0.0000°E)
Time: 03:55:34
(UTC+00:00)

Amsat-Oscar-6 - Visible Passes

Search period start: 17 June 2019 00:00
Search period end: 27 June 2019 00:00
Orbit: 1448 x 1455 km, 101.8° (Epoch: 16 June)

Date Brightness Start Highest point End Pass type
(mag) Time Alt. Az. Time Alt. Az. Time Alt. Az.
17 Jun ? 02:45:29 10° NNE 02:52:59 51° E 02:52:59 51° E visible
17 Jun ? 04:40:08 10° NNW 04:45:53 21° WNW 04:47:56 19° W visible
18 Jun ? 01:49:45 10° ENE 01:52:28 15° E 01:52:28 15° E visible
18 Jun ? 03:38:35 10° N 03:46:46 64° WNW 03:47:26 62° W visible
19 Jun ? 02:39:45 10° NE 02:46:56 46° E 02:46:56 46° E visible
19 Jun ? 04:33:49 10° NNW 04:40:01 23° WNW 04:41:53 22° W visible
20 Jun ? 01:44:41 10° E 01:46:25 13° E 01:46:25 13° E visible
20 Jun ? 03:32:37 10° N 03:40:54 71° WNW 03:41:23 69° W visible
21 Jun ? 02:34:02 10° NE 02:40:53 41° E 02:40:53 41° E visible
21 Jun ? 04:27:34 10° NNW 04:34:08 26° WNW 04:35:50 25° W visible
22 Jun ? 01:39:56 10° E 01:40:22 11° E 01:40:22 11° E visible
22 Jun ? 03:26:41 10° NNE 03:35:01 78° WNW 03:35:20 77° W visible
23 Jun ? 02:28:23 10° NE 02:34:49 36° E 02:34:49 36° E visible
23 Jun ? 04:21:22 10° NNW 04:28:16 30° WNW 04:29:47 28° W visible
24 Jun ? 03:20:47 10° NNE 03:29:08 86° WNW 03:29:17 85° WSW visible
25 Jun ? 02:22:45 10° NE 02:28:46 32° E 02:28:46 32° E visible
25 Jun ? 04:15:12 10° NNW 04:22:24 33° WNW 04:23:43 32° W visible
26 Jun ? 03:14:53 10° NNE 03:23:13 86° E 03:23:13 86° E visible
